Wind_Speed
5 6 5 1 3 4 4 6 3 7 4 5 4 4 6 2 5 4 12 13 16 18 20 19 15 11 7 7 7 8 9 11 12 13 12 11 11 11 12 13 14 13 13 12 10 11 13 14 15
6 6 3 2 3 1 5 4 6 7 8 3 4 8 1 3 5 5 18 13 12 11 13 14 11 10 9 9 9 10 12 13 14 15 15 14 12 12 13 14 15 15 14 14 14 12 12 14 14
8 7 1 3 3 5 4 3 7 17 22 7 4 2 3 2 7 4 8 13 13 11 8 6 9 12 10 10 11 12 13 15 17 17 17 15 14 16 15 15 15 16 16 15 14 14 13 13 14
7 3 2 2 7 7 5 9 16 16 10 8 6 3 5 7 4 8 10 13 13 10 9 8 11 14 13 12 11 12 13 15 17 17 16 18 20 19 18 18 18 18 17 17 17 17 17 17 15
9 2 1 3 6 5 6 21 19 6 7 2 14 6 5 16 11 11 15 15 12 11 12 12 13 13 11 10 10 12 12 12 13 13 15 17 19 20 21 21 20 20 20 19 18 18 19 19 16
4 2 1 4 5 5 7 25 15 9 14 6 6 9 6 12 19 16 18 16 13 10 14 15 15 13 10 10 12 14 15 16 14 13 13 14 18 21 23 24 25 25 22 22 22 20 21 21 20
6 3 4 4 9 7 7 6 2 5 10 8 5 7 5 16 21 19 20 17 12 16 16 16 16 13 12 14 15 16 17 17 16 14 13 15 15 15 17 19 24 26 24 24 24 24 25 23 21
6 4 3 5 4 10 6 3 8 10 16 7 12 5 7 19 23 24 21 19 17 17 17 16 15 15 15 17 16 17 15 17 15 14 15 16 15 16 18 15 17 19 22 24 23 24 25 26 24
10 2 6 7 7 8 13 4 22 14 13 11 12 18 21 13 29 28 24 23 22 20 18 17 17 18 18 16 18 17 17 16 16 15 15 15 15 19 17 15 15 15 14 15 18 19 22 24 24
7 5 10 11 9 8 15 12 25 13 22 20 19 19 21 18 34 34 31 29 26 21 20 22 22 20 17 16 16 17 15 15 16 16 16 16 16 19 18 16 13 15 16 18 17 19 18 22 23
10 13 23 16 24 17 16 25 28 17 15 24 26 16 17 24 36 36 33 29 23 21 24 27 25 22 19 16 15 14 10 10 12 15 15 16 18 19 16 14 12 11 12 16 17 14 17 21 22
6 19 28 31 32 16 13 24 23 28 27 39 40 27 18 30 37 38 35 31 26 27 30 29 26 23 18 14 12 8 6 6 8 10 13 17 19 15 15 13 11 12 12 12 14 14 15 18 20
8 19 28 27 27 28 30 26 25 29 41 43 42 34 24 31 34 34 35 32 29 31 34 31 28 24 16 12 8 7 7 7 8 9 13 16 17 16 15 14 12 13 13 13 13 14 15 18 19
9 15 19 21 28 29 26 27 24 35 32 38 34 26 24 32 36 37 40 37 35 34 36 34 28 21 13 9 7 7 6 6 7 10 13 15 15 15 16 16 13 11 12 12 12 13 15 17 17
13 12 14 19 18 23 26 19 22 35 35 34 37 31 29 33 39 42 40 40 38 35 33 32 26 17 11 8 8 6 6 9 10 11 13 13 14 15 15 15 15 11 12 12 12 13 14 17 17
5 2 7 6 13 21 10 25 20 37 33 35 37 35 30 35 42 44 43 41 38 35 32 28 20 13 9 7 6 6 8 10 12 12 12 12 13 13 14 15 14 12 12 11 11 14 14 17 18
2 13 13 17 11 7 8 16 11 26 22 27 34 39 36 37 45 47 45 42 40 36 30 25 16 11 8 5 5 7 8 10 10 10 11 13 14 14 14 13 13 13 12 11 11 14 14 14 17
11 7 13 22 3 11 17 15 20 30 21 24 32 35 34 36 46 43 44 40 38 33 29 21 13 10 7 6 5 6 8 10 11 12 12 13 15 14 12 12 13 13 12 11 13 16 14 14 14
7 15 16 16 3 8 8 9 17 21 15 20 29 37 35 32 35 27 38 37 39 33 28 18 13 10 7 6 5 6 9 12 13 13 13 11 13 12 10 10 12 12 9 8 11 18 16 15 13
11 10 20 15 9 7 11 13 17 14 13 22 26 36 24 24 20 21 30 35 38 33 23 15 13 10 7 4 3 7 12 14 14 15 9 8 13 10 9 10 10 10 8 9 12 18 17 16 16
18 18 16 19 1 6 10 14 14 17 11 23 25 22 19 25 25 26 32 39 37 29 20 14 13 8 5 3 3 8 11 14 13 9 5 8 9 7 7 11 10 9 8 10 14 16 17 18 16
18 17 20 19 6 8 4 5 5 8 12 7 20 14 18 22 20 26 39 39 34 24 16 14 10 6 4 3 3 8 10 14 9 5 4 6 6 3 7 9 8 9 9 11 14 14 16 16 17
19 13 11 11 9 5 11 3 7 3 8 11 11 14 12 12 19 30 41 36 28 19 15 13 9 4 5 4 2 8 9 10 7 5 5 5 4 4 8 8 9 9 9 11 12 15 15 14 18
6 3 2 6 1 11 18 6 5 6 8 7 4 4 9 17 23 31 34 30 23 17 15 12 7 5 6 3 3 8 8 7 7 7 8 5 3 6 10 11 9 9 9 10 10 13 15 14 14
7 7 2 3 4 6 7 6 15 10 10 9 9 12 17 20 25 31 36 31 24 20 16 12 7 6 5 2 4 7 7 7 7 9 10 4 3 7 13 11 10 8 9 9 10 12 13 15 16
17 14 6 7 4 4 6 6 9 5 10 21 24 14 22 25 27 33 35 29 23 19 17 12 9 7 4 2 4 4 5 7 7 10 9 2 3 9 13 11 11 8 9 9 9 7 13 11 17
16 16 14 2 2 2 4 7 10 3 3 3 9 19 24 27 30 33 33 27 22 20 17 12 10 8 5 2 2 3 5 8 9 9 5 5 6 10 12 12 12 8 10 9 7 7 13 9 17
10 10 8 4 5 4 4 4 6 5 3 3 6 11 20 25 29 33 32 27 20 18 15 12 9 9 5 3 1 2 5 8 11 6 6 5 6 8 10 11 13 8 10 9 7 9 10 9 12
7 8 4 8 5 5 2 6 7 9 9 11 9 19 28 30 32 35 32 25 19 19 17 14 13 12 8 3 2 0 5 6 9 4 5 5 7 8 10 11 13 10 8 8 7 9 9 9 10
18 18 13 8 8 6 4 8 4 8 11 11 13 24 28 30 33 34 30 26 23 23 19 16 15 13 8 3 3 1 3 4 6 4 5 8 8 8 9 10 11 10 9 8 7 9 9 7 9
Wind_Direction
147 133 139 86 47 59 265 256 238 285 318 238 153 175 205 124 156 214 161 172 170 179 186 190 201 207 234 236 268 293 294 287 282 281 272 265 266 260 276 283 287 285 288 285 268 264 261 254 248
158 146 143 85 96 53 264 263 247 237 243 240 139 127 221 190 179 156 159 181 167 173 192 198 212 217 219 232 255 281 286 283 284 284 276 270 264 260 266 272 277 276 276 280 280 266 258 261 252
174 160 83 106 152 201 230 239 288 299 294 212 150 198 253 240 202 200 197 181 176 189 196 207 210 213 221 239 262 284 292 289 284 283 276 277 271 279 278 279 274 268 266 266 268 270 267 255 260
170 162 102 114 237 263 246 282 265 277 308 244 171 170 233 181 196 217 195 183 182 196 212 207 210 212 225 241 264 287 300 299 291 279 277 272 276 283 285 276 270 263 267 262 262 259 260 266 256
156 145 125 237 242 252 250 261 287 214 234 201 177 204 230 209 216 207 194 186 196 207 211 205 211 222 237 257 273 291 291 298 293 290 281 274 274 279 278 276 270 265 264 264 261 260 256 257 259
148 135 68 249 229 240 269 275 280 294 297 203 205 165 211 214 209 203 195 197 197 219 208 210 216 225 248 268 286 291 289 295 299 295 285 284 287 284 278 270 264 264 261 256 257 256 253 256 255
146 102 226 251 278 289 228 265 273 308 304 243 223 156 233 223 214 208 200 199 205 213 219 218 221 227 238 249 271 279 288 294 294 287 285 295 291 288 290 275 264 260 258 258 256 251 251 252 249
193 124 258 242 215 276 220 276 301 316 304 312 215 208 243 236 196 197 199 203 210 215 225 224 222 226 232 253 272 273 279 289 281 278 288 299 297 302 303 283 272 263 258 257 257 253 247 247 245
185 113 245 237 185 248 274 357 300 315 294 312 214 244 270 233 194 197 198 203 211 217 222 226 226 229 234 255 261 267 281 278 270 275 288 295 300 314 308 293 276 265 257 263 265 253 242 243 240
176 176 233 221 208 247 284 297 290 309 300 295 273 275 263 222 197 201 207 211 214 222 227 230 228 230 237 246 251 274 271 272 268 276 286 287 298 309 299 294 282 267 256 249 257 250 242 233 234
191 218 234 271 246 245 276 286 289 282 288 280 283 294 266 212 202 209 216 220 224 232 227 229 228 227 231 241 266 273 272 274 275 284 291 292 295 297 289 294 284 279 265 256 252 256 241 230 226
252 230 240 249 261 269 256 278 280 283 277 287 291 290 252 209 208 214 218 219 224 229 227 224 222 225 229 250 275 274 298 289 282 289 300 295 289 284 282 289 277 272 266 266 257 248 236 231 227
210 243 245 259 274 275 277 267 266 281 286 290 289 281 245 221 224 231 226 220 226 228 225 222 217 220 230 260 266 270 289 294 304 309 302 293 285 278 276 273 280 272 265 263 259 242 232 226 227
237 252 269 262 263 269 268 275 281 278 280 289 285 262 244 235 231 228 219 220 227 228 225 222 215 215 234 254 270 274 293 299 300 306 302 298 289 281 270 265 269 275 272 270 257 238 230 222 217
268 275 272 266 262 262 272 281 267 276 282 283 284 275 261 244 230 230 228 224 228 228 217 209 206 215 234 254 271 279 301 311 301 298 297 304 299 285 272 256 254 270 270 271 249 228 223 212 210
351 284 267 247 239 258 212 264 271 277 276 275 280 281 266 245 233 234 229 227 225 221 203 203 206 219 237 261 279 308 315 312 304 297 290 305 309 292 268 254 249 260 258 265 245 223 220 209 212
245 258 277 285 238 261 191 274 270 277 272 266 277 280 268 252 237 231 229 227 223 211 204 203 206 224 240 258 274 305 312 318 313 299 292 302 311 300 266 257 246 248 252 254 237 216 218 214 214
217 235 248 252 252 223 253 260 274 279 276 278 282 283 273 248 239 233 229 226 216 204 206 204 211 222 230 239 259 290 300 312 312 305 301 293 303 301 265 247 235 237 244 247 232 209 207 207 204
195 226 245 257 215 249 246 262 276 281 286 272 278 277 268 253 244 240 230 223 203 199 198 198 212 213 215 222 256 291 314 318 316 304 298 287 298 295 265 234 218 232 245 246 214 195 199 198 191
230 243 256 285 260 232 269 263 271 282 277 274 264 269 261 252 259 237 216 197 193 194 190 195 202 204 200 224 266 311 323 324 315 309 298 282 299 294 262 213 214 228 226 213 189 189 193 189 187
224 228 249 249 343 256 282 284 278 283 299 283 272 261 258 261 245 205 192 188 190 189 186 197 196 191 198 215 300 327 332 328 323 321 295 299 303 291 246 197 207 215 205 195 184 185 190 192 195
229 220 241 254 265 263 133 289 295 275 295 290 273 248 247 245 223 199 187 184 183 182 183 189 186 181 200 220 314 339 345 346 353 350 333 323 327 254 174 188 197 190 189 184 184 188 189 196 199
232 219 232 247 254 262 256 272 265 255 288 274 265 277 269 221 201 187 187 181 177 178 182 183 175 174 210 232 323 350 342 349 359 351 331 313 317 216 197 181 175 174 180 174 175 183 192 192 190
175 200 273 263 279 262 267 181 220 228 222 263 256 286 192 184 183 186 179 175 173 175 179 176 170 178 197 203 359 352 346 358 351 341 336 314 285 199 174 163 171 174 177 177 182 188 188 192 194
175 115 260 280 214 223 237 178 242 261 237 231 240 199 175 180 184 182 175 174 175 177 175 170 177 185 192 191 3 348 346 356 2 351 342 310 230 190 176 168 170 168 158 155 162 177 185 188 188
206 179 165 201 197 195 169 233 253 239 281 246 256 210 177 177 183 181 177 174 179 180 175 171 173 174 180 142 358 4 354 2 349 345 357 -0 183 175 176 170 173 159 160 162 170 181 184 193 199
200 207 185 17 317 83 211 279 329 317 313 215 146 160 178 180 184 181 176 180 181 180 178 177 172 181 184 139 57 24 17 9 359 357 37 86 125 158 166 173 173 169 176 172 174 180 186 185 183
165 146 187 195 205 198 268 258 216 240 224 166 146 164 173 182 182 179 180 181 181 181 178 182 178 192 176 155 105 23 22 16 14 31 75 96 124 145 167 170 169 173 181 185 185 181 187 191 191
163 211 154 159 219 168 185 252 218 203 185 192 201 182 181 182 181 182 182 181 176 180 184 188 191 197 188 185 190 209 10 24 9 59 51 72 139 143 153 173 184 189 188 183 166 174 180 180 178
196 204 209 175 201 227 158 260 220 210 193 189 182 185 185 185 183 184 181 180 181 185 187 192 191 192 185 187 188 206 26 41 30 44 80 93 120 139 151 159 176 179 169 160 167 171 170 187 176
Height
1520 1519 1522 1524 1535 1536 1537 1522 1507 1503 1500 1494 1492 1492 1491 1489 1494 1508 1492 1495 1495 1498 1500 1502 1505 1507 1508 1509 1509 1509 1507 1509 1509 1510 1509 1508 1508 1509 1509 1509 1509 1509 1509 1510 1512 1513 1512 1512 1514
1520 1520 1523 1523 1538 1547 1535 1510 1505 1498 1493 1492 1491 1492 1491 1491 1489 1490 1492 1493 1495 1497 1500 1501 1503 1504 1506 1507 1507 1507 1507 1507 1506 1507 1508 1507 1507 1507 1508 1508 1508 1507 1507 1507 1509 1510 1511 1511 1510
1521 1521 1522 1527 1538 1542 1530 1507 1502 1495 1491 1492 1492 1493 1491 1489 1488 1488 1489 1491 1493 1496 1498 1500 1501 1503 1504 1504 1504 1505 1505 1505 1505 1504 1506 1504 1504 1503 1504 1505 1505 1505 1506 1507 1508 1507 1508 1509 1509
1521 1521 1524 1531 1534 1522 1513 1501 1496 1494 1490 1488 1490 1492 1489 1486 1486 1487 1488 1490 1493 1495 1496 1497 1499 1500 1501 1501 1502 1502 1501 1502 1502 1502 1502 1503 1501 1501 1500 1502 1503 1503 1502 1503 1503 1505 1507 1507 1508
1520 1520 1527 1531 1525 1515 1506 1498 1497 1490 1487 1486 1489 1488 1486 1484 1484 1486 1487 1489 1491 1493 1494 1495 1496 1498 1499 1499 1500 1500 1500 1499 1499 1498 1498 1499 1498 1497 1497 1497 1497 1498 1499 1500 1501 1502 1503 1503 1504
1518 1520 1533 1534 1519 1507 1501 1495 1493 1491 1485 1484 1485 1484 1484 1482 1482 1483 1485 1487 1489 1490 1491 1492 1494 1495 1496 1497 1497 1497 1498 1497 1495 1494 1494 1495 1495 1493 1493 1493 1494 1494 1495 1496 1497 1498 1499 1500 1501
1517 1523 1529 1521 1513 1506 1497 1490 1489 1490 1486 1483 1481 1483 1481 1479 1480 1481 1483 1486 1487 1488 1489 1490 1492 1493 1495 1496 1495 1495 1494 1494 1493 1491 1491 1491 1491 1490 1489 1488 1487 1488 1489 1491 1493 1493 1493 1495 1497
1514 1518 1521 1518 1513 1506 1491 1488 1487 1488 1485 1480 1480 1482 1479 1474 1478 1480 1482 1485 1485 1486 1487 1487 1488 1490 1492 1493 1493 1491 1489 1488 1489 1488 1488 1487 1487 1486 1484 1482 1482 1482 1483 1485 1486 1487 1489 1491 1493
1511 1522 1521 1513 1508 1497 1486 1489 1482 1485 1484 1482 1479 1475 1474 1475 1475 1477 1478 1481 1482 1482 1483 1484 1484 1485 1486 1487 1491 1489 1486 1484 1484 1484 1484 1483 1482 1481 1479 1479 1478 1478 1479 1481 1481 1481 1483 1486 1489
1506 1517 1505 1488 1491 1490 1486 1486 1483 1485 1480 1478 1477 1473 1471 1470 1471 1472 1473 1474 1476 1477 1478 1479 1480 1481 1482 1484 1484 1486 1482 1481 1480 1480 1480 1479 1478 1477 1476 1475 1474 1475 1475 1477 1478 1478 1479 1481 1484
1498 1501 1484 1486 1485 1487 1489 1484 1482 1482 1478 1474 1472 1469 1467 1466 1468 1468 1467 1468 1469 1471 1472 1474 1476 1477 1478 1480 1480 1480 1478 1476 1476 1476 1475 1474 1474 1473 1473 1473 1472 1471 1472 1473 1474 1474 1475 1477 1480
1496 1490 1486 1480 1480 1487 1484 1483 1479 1475 1473 1469 1467 1467 1463 1463 1463 1462 1463 1464 1465 1466 1468 1469 1471 1476 1476 1477 1476 1475 1474 1473 1473 1473 1472 1471 1470 1470 1470 1470 1469 1470 1470 1470 1470 1471 1472 1475 1478
1487 1480 1480 1482 1483 1482 1482 1477 1471 1467 1465 1464 1463 1461 1458 1457 1457 1459 1457 1460 1461 1462 1463 1465 1467 1472 1474 1473 1473 1472 1471 1469 1469 1468 1468 1468 1467 1467 1467 1467 1467 1467 1467 1467 1468 1468 1470 1472 1475
1478 1478 1478 1479 1479 1478 1476 1471 1470 1460 1462 1460 1457 1455 1453 1453 1452 1453 1454 1455 1456 1457 1459 1462 1464 1469 1471 1472 1471 1470 1468 1467 1466 1466 1465 1464 1463 1463 1463 1463 1464 1464 1464 1464 1465 1466 1468 1470 1473
1475 1478 1474 1473 1472 1470 1473 1469 1460 1456 1458 1454 1451 1449 1447 1445 1448 1446 1445 1447 1447 1450 1456 1459 1463 1466 1468 1469 1469 1468 1466 1464 1464 1463 1462 1461 1459 1459 1459 1459 1461 1461 1462 1462 1462 1464 1465 1468 1471
1477 1476 1479 1465 1467 1460 1470 1464 1452 1451 1451 1447 1444 1442 1441 1440 1440 1439 1442 1444 1447 1450 1456 1459 1461 1464 1465 1466 1466 1464 1463 1462 1461 1460 1459 1458 1456 1455 1455 1456 1457 1458 1459 1459 1460 1462 1464 1466 1469
1481 1481 1476 1470 1463 1463 1464 1456 1444 1445 1446 1441 1437 1434 1432 1432 1433 1434 1437 1440 1442 1447 1453 1457 1460 1462 1462 1463 1463 1462 1461 1459 1458 1457 1456 1455 1453 1452 1451 1452 1454 1455 1456 1457 1458 1460 1462 1465 1468
1481 1481 1471 1466 1457 1458 1458 1455 1440 1436 1439 1434 1431 1428 1424 1425 1423 1426 1431 1435 1441 1447 1452 1455 1457 1460 1461 1460 1461 1460 1459 1457 1455 1454 1453 1452 1450 1449 1447 1448 1451 1452 1453 1454 1455 1457 1461 1463 1467
1459 1465 1466 1452 1455 1458 1455 1450 1439 1432 1434 1430 1425 1421 1418 1419 1420 1424 1428 1432 1438 1444 1448 1452 1455 1458 1458 1459 1459 1458 1457 1454 1452 1451 1450 1449 1447 1446 1445 1446 1448 1450 1451 1451 1452 1455 1459 1463 1466
1458 1465 1458 1451 1451 1457 1450 1447 1436 1428 1425 1422 1419 1414 1413 1415 1418 1418 1420 1428 1436 1441 1446 1449 1454 1456 1456 1457 1457 1456 1454 1451 1449 1448 1446 1446 1444 1443 1443 1444 1446 1448 1449 1450 1451 1454 1458 1462 1465
1454 1458 1456 1456 1453 1449 1447 1445 1435 1419 1419 1415 1411 1409 1409 1410 1410 1413 1418 1424 1432 1440 1444 1449 1453 1454 1454 1455 1455 1454 1452 1450 1447 1445 1445 1444 1442 1441 1441 1443 1445 1446 1447 1449 1451 1454 1458 1461 1464
1453 1443 1450 1452 1460 1468 1445 1469 1437 1426 1421 1415 1409 1406 1405 1405 1408 1412 1418 1424 1431 1439 1444 1448 1451 1451 1453 1454 1454 1453 1450 1448 1446 1444 1443 1442 1441 1440 1441 1442 1444 1445 1447 1449 1452 1455 1458 1460 1463
1434 1441 1446 1448 1453 1456 1449 1465 1439 1426 1424 1414 1406 1401 1400 1402 1406 1410 1417 1426 1435 1440 1444 1447 1449 1450 1452 1453 1453 1451 1449 1448 1446 1444 1443 1441 1441 1440 1441 1442 1444 1446 1448 1450 1452 1455 1457 1461 1464
1430 1440 1446 1447 1455 1463 1442 1458 1439 1429 1416 1406 1400 1398 1398 1402 1406 1413 1421 1430 1435 1440 1444 1447 1449 1450 1452 1453 1452 1450 1448 1447 1446 1444 1442 1441 1440 1440 1442 1443 1445 1446 1448 1451 1453 1455 1458 1461 1465
1430 1449 1474 1473 1471 1460 1433 1448 1423 1406 1404 1400 1398 1397 1399 1402 1407 1414 1420 1428 1434 1438 1443 1446 1448 1450 1451 1452 1451 1449 1449 1448 1446 1443 1441 1440 1439 1440 1442 1444 1446 1448 1450 1452 1453 1456 1459 1463 1465
1421 1431 1458 1468 1465 1448 1428 1438 1412 1393 1392 1393 1394 1394 1398 1401 1408 1415 1421 1427 1433 1438 1442 1445 1448 1450 1450 1451 1450 1450 1449 1448 1445 1443 1440 1439 1439 1440 1442 1445 1447 1449 1452 1454 1455 1457 1460 1464 1467
1412 1421 1421 1437 1433 1442 1433 1415 1400 1393 1394 1392 1390 1392 1397 1401 1407 1414 1422 1428 1432 1437 1441 1444 1447 1449 1449 1450 1450 1450 1449 1448 1445 1443 1441 1440 1440 1441 1443 1446 1448 1451 1453 1455 1457 1458 1460 1463 1467
1397 1407 1432 1439 1449 1445 1432 1421 1417 1397 1393 1394 1393 1394 1398 1403 1409 1416 1422 1427 1432 1436 1440 1444 1447 1448 1449 1449 1450 1450 1449 1448 1446 1444 1443 1442 1442 1442 1444 1447 1450 1451 1453 1456 1458 1459 1462 1464 1467
1400 1402 1408 1416 1425 1444 1443 1425 1395 1390 1389 1391 1391 1393 1396 1401 1408 1415 1421 1427 1432 1436 1440 1443 1446 1448 1448 1449 1450 1450 1450 1449 1447 1445 1445 1444 1443 1444 1445 1447 1450 1453 1455 1457 1459 1461 1464 1466 1469
1378 1390 1395 1409 1423 1415 1425 1410 1381 1381 1381 1382 1386 1392 1396 1401 1407 1414 1420 1425 1430 1434 1439 1442 1445 1447 1448 1449 1450 1450 1450 1449 1448 1447 1446 1446 1446 1446 1447 1449 1451 1454 1457 1458 1461 1463 1465 1467 1470